Regional Weather Roundup
Issued by NWS

Home | Current Version | Previous Version | Graphics & Text | Print | Product List | Glossary Off
Versions: 1 2 3 4 5 6 7 8 9 10 11 12 13 14 15 16 17 18 19 20 21 22 23 24 25 26 27 28 29 30 31 32 33 34 35 36 37 38 39 40 41 42 43 44 45 46 47 48 49 50

000
ASUS43 KMKX 281011
RWRWI

WISCONSIN REGIONAL WEATHER ROUNDUP
NATIONAL WEATHER SERVICE MILWAUKEE/SULLIVAN WI
500 AM CDT TUE JUL 28 2015

NOTE: "FAIR" INDICATES FEW OR NO CLOUDS BELOW 12,000 FEET WITH NO
SIGNIFICANT WEATHER AND/OR OBSTRUCTIONS TO VISIBILITY.

WIZ001-002-006>008-014>016-023>028-281100-
NORTHWEST WISCONSIN

CITY           SKY/WX    TMP DP  RH WIND       PRES   REMARKS
SUPERIOR ARPT  CLEAR     67  65  93 CALM      29.84S
ASHLAND        CLEAR     61  61 100 SE3       29.89F
HAYWARD        CLEAR     70  65  84 SE6       29.90F
SIREN          CLEAR     72  68  86 SE9       29.85F
CUMBERLAND     CLEAR     68  64  88 SE7       29.88F
RICE LAKE      CLEAR     70  65  86 SE10      29.91S
CHETEK         CLEAR     69  67  93 SE7       29.90F
LADYSMITH      CLEAR     69  63  82 SE6       29.95F
EAU CLAIRE     CLEAR     71  65  81 SE7       29.89F
MENOMONIE      CLEAR     69  67  94 SE6       29.89S
NEW RICHMOND   CLEAR     71  69  93 SE8       29.85F
OSCEOLA        CLEAR     73  73 100 SE9       29.85F
$$

WIZ003>005-009-010-017-018-281100-
NORTH CENTRAL WISCONSIN

CITY           SKY/WX    TMP DP  RH WIND       PRES   REMARKS
MANITOWISH WTR CLEAR     66  64  91 S6        29.98S
ARBOR VITAE    CLEAR     69  63  79 S6        29.98S
WOODRUFF       CLEAR     69  63  79 S6        29.98S
RHINELANDER    CLEAR     64  60  87 SE3       29.99F
EAGLE RIVER    CLEAR     62  61  96 S3        29.99F
LAND O LAKES     N/A     57  57 100 CALM      30.00F FOG
PHILLIPS       CLEAR     67  62  83 S6        29.96S
TOMAHAWK       CLEAR     62  60  91 CALM      29.98F
MEDFORD        CLEAR     65  61  87 SE5       29.97F
MERRILL        NOT AVBL
$$

WIZ029-030-035-036-043>047-281100-
CENTRAL WISCONSIN

CITY           SKY/WX    TMP DP  RH WIND       PRES   REMARKS
WAUSAU         CLEAR     65  61  87 SE5       29.96F
MOSINEE        CLEAR     63  61  94 SE5       29.99F
MARSHFIELD     CLEAR     68  60  75 S8        29.96F
STEVENS POINT  CLEAR     64  60  87 SE3       29.98F
WAUPACA        CLEAR     62  61  97 CALM      29.99F FOG
WAUTOMA        CLEAR     60  60 100 CALM      29.99F
WISC RAPIDS    CLEAR     67  60  78 S5        29.98F
CAMP DOUGLAS   CLEAR     65  65 100 SE3       29.95F
$$

WIZ011>013-019>022-031-037>040-048>050-281100-
NORTHEAST WISCONSIN

CITY           SKY/WX    TMP DP  RH WIND       PRES   REMARKS
ANTIGO         CLEAR     61  60  97 S6        30.01S
SHAWANO        CLEAR     65  60  84 S3        29.99F
OCONTO         CLEAR     59  59 100 CALM      30.00R
STURGEON BAY   CLEAR     66  57  72 S5        30.02S
GREEN BAY      CLEAR     60  58  92 W3        30.00S FOG
MANITOWOC      CLEAR     63  61  94 MISG      30.00F FOG
APPLETON       CLEAR     66  61  82 S3        30.00S
CLINTONVILLE   FOG       57  55  94 CALM      29.99F VSB 3/4
OSHKOSH        CLEAR     63  60  90 S3        30.00R
$$

WIZ032>034-041-042-053>061-281100-
SOUTHWEST WISCONSIN

CITY           SKY/WX    TMP DP  RH WIND       PRES   REMARKS
LA CROSSE      CLEAR     72  65  78 SE7       29.90F
SPARTA         CLEAR     69  61  75 E3        29.95S
VIROQUA        CLEAR     68  64  89 SE9       29.95S
BOSCOBEL       CLEAR     71  63  75 VRB3      29.94F
PRAIRIE DU CHI CLEAR     70  65  83 E6        29.92S
PLATTEVILLE    CLEAR     67  64  91 E10       29.96F
$$

WIZ056-057-062-063-064-067-068-281100-
SOUTH CENTRAL WISCONSIN

CITY           SKY/WX    TMP DP  RH WIND       PRES   REMARKS
REEDSBURG      CLEAR     67  62  84 CALM      29.96F
BARABOO/DELLS  CLEAR     67  60  78 SE6       29.97F
LONE ROCK      CLEAR     66  62  87 SE3       29.96F
MINERAL POINT  CLEAR     68  63  83 SE8       29.97F
MADISON        CLEAR     68  62  81 SE7       29.98F
MIDDLETON      CLEAR     66  64  91 SE5       29.99F
WATERTOWN      CLEAR     62  62 100 CALM      30.00S
MONROE         CLEAR     64  63  94 E6        29.99F
JANESVILLE     CLEAR     66  63  88 CALM      29.99S
$$

WIZ051-052-058>065-066-070>072-281100-
SOUTHEAST WISCONSIN

CITY           SKY/WX    TMP DP  RH WIND       PRES   REMARKS
MILWAUKEE      PTCLDY    67  62  84 CALM      30.00S
WAUKESHA       CLEAR     61  59  94 W3        30.03R FOG
MILWAUKEE/TIMM CLEAR     63  59  88 CALM      30.02R
RACINE         CLEAR     67  62  84 CALM      30.01F
BURLINGTON     FOG       57  57  98 CALM      30.01R VSB 1/2
KENOSHA        FOG       61  60  97 CALM      30.01R VSB 1/2
FOND DU LAC    CLEAR     66  62  87 S6        30.00S
SHEBOYGAN      FOG       59  59 100 CALM      30.00F VSB 1/4
WEST BEND      CLEAR     59  55  88 CALM      30.02S
JUNEAU           N/A     64  60  89 SE6       30.02S
$$

LSZ147-162-281100-
LAKE SUPERIOR

STATION/POSITION TIME  TEMP    WIND        PRES    WAVE
                       AIR SEA DIR/SP/G            HT/PER
                 (UTC) (F)     (DEG/KT/KT) (MB)    (FT/S)
W MID LAKE BUOY  0950   66 62  140/ 10/ 10 1012.5F   0
DEVILS ISLAND    1000   72     150/  7/ 10 1011.7F
PORT WING        0900   74     150/  7/ 11 1011.5F
SAXON HARBOR     0940   72                 1012.2F
$$

LMZ867-665-643>646-281100-
LAKE MICHIGAN

STATION/POSITION TIME  TEMP    WIND        PRES    WAVE
                       AIR SEA DIR/SP/G            HT/PER
                 (UTC) (F)     (DEG/KT/KT) (MB)    (FT/S)
CHAMBERS ISLAND  0900   70     170/  3/  6 1015.6F
S GREEN BAY BUOY 1000   74 75  160/  8/ 12 1017.1R
N MID LAKE BUOY  0950   70 69  180/  4/  4 1015.8R   0
NORTHPORT PIER   1001   69     200/  4/  9 1015.9R
SISTER BAY       0814   69     170/  9/ 12   N/A
ALGOMA LAKESHORE 0942             CALM       N/A
KEWAUNEE LAKESHO 0900   64     300/  3/  4 1015.5F
SHEBOYGAN LAKESH 1000   69     210/  3/  3 1015.8F
PORT WASHINGTON  0900   67     300/  2/  3 1016.6F
ATWATER BUOY     1000   72     160/  2/  4 1017.4R
MILWAUKEE LAKESH 0900   73      50/  3/  3   N/A
KENOSHA   LAKESH 1000   72     190/  4/  5 1015.6S
$$

TC  - TEMPERATURE IN CELSIUS
VSB - VISIBILITY IN STATUTE MILES
WCI - WIND CHILL INDEX
HX  - HEAT INDEX




USA.gov is the U.S. government's official web portal to all federal, state and local government web resources and services.